Wetbulb
69.86 70.26 70.78 66.94 59.45 58.28 53.94 54.89 61.85 60.62 61.37 65.07 67.08 66.26 64.80 65.80 63.95 59.24 73.41 73.44 73.68 73.62 75.37 74.46 76.12 75.45 75.68 75.43 75.49 75.57 75.69 75.69 75.59 75.39 75.24 75.08 74.85 74.80 75.12 75.20 75.31 75.19 74.89 74.23 73.45 72.94 72.50 72.36 71.87
64.32 64.04 65.65 63.48 57.81 53.49 54.63 56.63 54.39 62.18 65.01 66.41 66.73 67.71 66.32 64.39 69.30 69.57 70.79 73.09 73.91 75.53 75.36 74.50 76.20 75.39 75.33 75.44 75.49 75.34 75.37 75.34 75.27 75.26 75.08 75.06 74.91 74.62 74.48 74.30 74.17 73.98 73.80 73.59 73.38 73.07 72.82 72.55 72.25
66.26 65.02 61.32 60.16 58.12 52.71 53.10 56.45 58.48 64.31 65.98 66.14 65.75 69.39 68.14 65.67 69.04 69.96 72.73 73.16 72.80 75.52 75.84 74.98 76.10 75.54 75.03 74.78 75.12 75.37 75.60 75.47 75.54 75.47 75.39 75.08 74.68 74.41 74.38 74.38 74.75 75.06 74.79 74.82 74.49 74.04 74.01 73.40 73.06
64.09 63.24 62.20 56.62 54.83 54.68 55.86 59.55 63.55 64.04 64.74 67.51 68.03 64.76 69.05 71.72 69.76 71.52 72.07 71.96 73.50 73.99 74.84 75.69 76.37 75.89 75.40 75.02 74.62 74.55 74.50 74.30 74.11 74.00 73.86 73.85 73.67 73.97 74.06 73.83 73.85 73.83 74.00 74.24 74.45 75.15 75.19 74.46 74.04
63.67 60.78 55.21 54.99 57.49 58.81 59.73 63.74 63.09 61.88 63.82 66.20 67.09 64.05 65.58 69.53 71.86 71.52 70.79 71.32 70.92 73.42 74.48 74.81 76.18 75.72 75.47 75.43 75.25 75.08 74.91 74.68 74.41 74.10 73.90 73.18 72.76 72.77 72.86 72.97 73.04 73.08 73.25 73.50 73.72 74.22 74.84 74.97 74.64
57.70 57.86 52.41 52.16 55.14 56.62 59.88 63.75 63.78 63.46 65.61 66.10 65.24 64.72 65.93 71.68 70.03 70.11 70.57 70.12 71.01 72.75 73.08 73.52 75.69 75.72 75.69 75.37 74.55 74.00 73.74 73.36 73.13 73.22 73.07 73.12 73.16 73.10 73.07 72.84 72.91 73.23 73.32 73.32 73.74 73.82 74.50 74.55 74.85
56.03 54.35 52.64 53.69 54.85 54.20 57.93 61.55 60.88 60.30 63.11 64.88 67.11 62.88 66.60 68.63 69.94 69.61 69.22 69.88 70.47 71.49 73.53 73.33 73.21 74.89 75.27 74.80 74.45 73.82 73.87 73.68 73.63 72.49 71.48 71.95 72.88 74.27 74.27 73.51 72.82 72.73 73.06 73.28 73.46 73.80 74.15 74.89 75.14
57.08 55.67 52.33 53.40 54.90 56.41 58.87 57.74 62.65 58.81 62.59 68.46 68.74 63.43 64.27 68.46 69.67 69.89 69.80 69.74 71.25 73.36 73.56 73.15 73.79 73.62 72.74 72.14 74.85 74.32 74.00 73.52 72.72 71.59 72.14 73.74 73.46 73.67 74.87 74.57 71.60 71.23 71.55 71.81 72.08 72.91 73.75 73.95 74.15
58.70 52.06 50.40 52.47 53.59 58.46 61.61 59.77 65.18 67.12 66.71 68.67 69.31 68.64 69.39 69.66 69.48 68.90 69.32 70.94 72.05 73.05 73.96 74.80 74.61 72.32 73.34 73.04 73.68 73.87 73.85 73.48 73.44 73.14 73.01 72.65 72.89 72.77 72.53 72.32 70.95 70.88 72.11 72.48 72.86 73.16 73.53 73.68 73.48
54.01 50.84 51.38 55.08 55.87 58.47 61.64 62.49 64.09 64.86 65.47 66.05 67.08 69.22 70.11 68.99 69.18 68.60 68.93 68.80 69.37 70.02 71.88 73.20 73.91 73.60 73.53 73.20 73.49 72.00 73.02 73.01 72.22 71.32 70.54 70.91 72.57 70.64 71.73 73.07 72.87 72.76 73.36 73.50 73.35 73.65 73.48 73.40 70.52
52.84 49.33 52.95 54.44 55.98 57.24 57.93 61.96 61.42 63.25 62.64 65.55 65.55 67.64 69.16 69.27 68.78 67.94 69.41 69.27 69.20 69.96 70.45 71.17 71.99 72.96 72.95 71.48 72.22 71.94 71.39 71.94 70.83 69.74 69.00 69.36 70.72 69.67 69.61 69.93 70.40 71.09 72.25 70.83 71.60 71.26 71.62 71.19 70.75
50.27 52.84 53.26 54.29 55.66 55.72 55.47 63.36 56.86 59.36 63.35 68.33 68.67 69.22 68.71 67.77 67.30 67.88 68.78 68.73 68.50 69.07 68.62 70.08 70.81 71.11 72.34 71.47 70.59 70.37 69.59 70.15 69.46 68.69 67.43 67.22 66.97 67.22 67.27 68.66 68.98 69.00 69.67 69.36 68.34 68.76 69.66 70.93 70.53
51.48 52.54 54.17 54.97 54.72 54.97 56.87 63.79 64.80 64.95 67.30 68.44 68.82 68.35 67.41 67.55 68.24 69.10 68.98 69.37 68.82 67.50 68.06 68.93 70.13 70.55 70.15 70.15 69.84 68.83 67.80 67.81 68.72 67.34 66.17 65.80 64.92 64.57 64.80 65.73 67.53 68.04 66.21 64.76 65.35 65.88 66.44 66.25 67.46
53.73 53.07 53.48 53.98 53.67 54.40 55.68 64.91 65.68 65.32 67.26 66.86 67.16 66.76 67.16 67.33 67.65 68.14 67.64 66.85 66.77 67.05 66.93 67.50 67.28 68.32 68.39 67.81 67.64 66.10 66.16 66.69 66.16 66.24 65.59 63.94 63.20 62.73 62.12 62.21 64.44 65.29 62.58 62.40 63.12 63.29 63.13 63.10 63.63
53.95 50.75 52.63 52.81 53.07 52.60 59.68 61.12 61.05 65.69 66.11 65.22 65.56 66.34 66.65 66.99 67.65 66.62 67.05 66.44 66.07 65.83 66.48 67.93 67.58 68.05 67.79 67.45 66.56 65.91 64.48 65.05 64.92 65.43 65.16 62.28 62.39 61.79 61.18 60.79 62.16 62.21 61.29 61.97 63.54 63.39 61.94 60.95 61.25
51.18 52.55 48.45 53.02 54.37 53.93 58.02 55.15 63.15 65.98 65.01 63.94 64.73 65.28 65.57 65.42 65.15 65.51 65.82 66.17 66.33 65.56 64.58 64.62 63.25 63.52 66.44 66.26 67.30 66.56 65.71 64.79 63.48 63.48 62.01 60.83 61.34 61.29 59.92 59.83 61.13 61.45 60.71 61.27 61.86 60.76 59.69 59.50 59.72
50.82 48.37 49.49 52.99 56.52 53.40 53.18 56.36 62.85 65.61 64.98 63.88 64.28 64.33 63.98 62.84 62.81 63.19 63.73 63.97 63.53 63.48 62.37 61.86 62.94 62.06 64.08 65.23 65.06 66.29 67.12 65.20 63.58 62.51 60.40 60.84 60.60 60.38 59.85 59.56 60.82 61.32 60.24 60.99 60.66 59.51 59.43 58.45 58.75
46.97 47.53 50.39 52.30 55.11 53.95 55.11 55.44 62.04 63.65 64.17 63.65 63.83 63.56 62.79 61.56 60.72 61.58 61.41 61.00 61.14 61.99 62.30 61.98 61.51 62.31 63.99 62.19 63.10 61.61 62.09 62.38 63.10 61.65 60.03 60.95 59.76 59.64 59.76 59.42 60.17 60.73 59.37 59.81 59.73 59.28 59.13 59.29 59.63
50.80 50.35 49.36 52.21 58.15 55.72 54.89 58.54 60.70 62.44 63.50 63.26 63.32 63.35 62.55 61.47 60.84 60.60 60.14 60.31 60.18 61.32 61.51 61.54 60.97 61.57 61.28 59.70 58.86 58.33 58.12 61.34 61.69 62.01 61.12 60.59 59.78 59.13 58.42 57.46 57.87 58.15 58.33 58.64 58.79 57.81 56.31 57.33 58.04
50.44 49.77 50.47 54.73 57.69 56.79 55.64 57.79 60.97 61.90 62.40 63.61 63.44 63.28 62.61 60.11 59.09 59.00 59.26 59.89 59.88 60.04 60.88 60.74 60.75 60.38 59.96 59.59 60.37 59.70 59.83 60.91 61.56 59.98 60.92 59.30 57.91 56.90 55.64 55.78 55.91 57.04 56.56 57.56 58.57 57.88 55.40 56.14 57.81
49.85 49.41 50.61 52.70 56.44 57.14 55.20 54.17 56.16 58.99 62.58 63.39 64.39 64.77 63.48 60.11 58.50 58.43 59.02 58.98 58.98 58.95 59.92 59.81 60.12 60.35 60.35 60.40 59.49 58.87 59.80 59.20 56.98 57.72 55.98 55.87 56.63 56.19 56.08 56.13 56.31 57.88 57.25 57.21 57.53 56.93 56.86 54.35 55.89
47.65 51.60 51.66 52.18 51.80 47.94 54.05 45.34 56.11 59.06 59.16 61.23 62.87 63.60 62.12 60.81 60.14 59.35 58.97 58.64 58.44 58.19 59.06 59.78 59.69 59.96 59.40 59.93 58.26 58.36 54.73 53.51 55.11 54.63 55.42 55.62 56.16 55.83 55.92 55.97 56.85 56.94 57.07 56.79 56.97 56.77 56.24 55.08 53.54
49.19 52.66 51.63 53.67 53.19 51.46 51.28 47.97 51.09 57.08 56.60 58.55 61.53 62.99 62.53 61.88 60.62 59.53 59.06 59.25 58.71 58.63 58.38 59.47 59.72 59.68 59.77 59.69 57.54 54.64 53.24 53.52 53.97 52.94 52.54 54.01 54.39 55.87 55.73 55.87 55.88 56.31 55.58 56.69 56.68 56.47 55.58 54.21 52.83
52.98 52.14 52.20 52.36 51.38 45.61 49.47 49.47 49.25 51.98 51.23 55.50 59.23 62.47 63.11 61.90 60.88 60.30 60.44 60.08 58.39 58.45 58.27 58.56 59.36 58.95 59.21 58.50 56.44 55.37 53.04 52.91 51.00 51.54 50.77 51.13 51.80 53.59 54.49 54.98 56.41 56.41 55.09 56.17 56.79 56.79 56.49 55.47 54.55
51.99 51.41 44.69 44.13 44.38 44.03 51.36 49.85 51.37 54.25 55.87 55.49 56.48 61.77 63.08 62.54 61.18 60.17 58.93 58.13 57.72 57.46 57.78 57.93 57.87 56.98 58.06 57.46 55.27 54.81 53.63 53.24 52.66 52.62 52.30 52.20 52.07 53.18 53.74 56.52 56.07 56.44 56.79 56.71 56.17 54.92 54.77 54.31 52.85
50.86 51.72 46.15 40.77 41.19 43.77 50.05 45.57 49.87 56.69 57.82 56.67 59.84 62.90 62.41 62.02 61.29 59.99 59.37 58.47 57.78 57.84 57.73 57.62 56.96 56.39 56.88 56.35 54.98 54.98 53.67 52.87 53.08 54.46 53.55 54.02 53.80 54.86 57.04 56.65 55.58 54.65 55.27 55.06 55.83 54.51 53.92 55.34 54.26
50.54 48.46 52.73 48.25 48.60 45.59 45.68 50.46 54.78 56.15 55.95 56.00 60.24 62.05 60.86 61.78 61.12 60.27 59.47 59.38 58.67 57.81 57.75 57.12 56.68 56.63 56.76 55.34 54.90 54.74 53.66 54.84 54.49 56.22 56.19 54.66 54.17 54.68 53.90 53.53 53.08 54.36 55.59 55.00 56.24 53.88 53.89 54.06 53.26
52.73 53.84 47.74 48.24 41.86 40.14 44.73 46.77 46.80 52.08 54.72 56.27 56.46 61.37 61.55 61.62 60.74 60.51 59.87 59.97 58.73 58.46 57.44 57.37 57.28 56.22 56.26 54.93 54.46 54.13 54.95 55.28 55.92 57.01 55.25 55.45 55.56 55.30 55.33 55.39 55.97 53.79 54.58 55.80 56.01 54.39 54.79 53.80 53.09
50.05 49.34 51.13 51.37 48.46 42.58 41.58 44.78 55.71 53.99 55.72 56.50 57.65 59.30 61.38 61.08 60.70 60.63 59.85 59.92 58.36 57.90 57.06 56.98 56.32 56.29 55.74 54.27 54.44 54.68 54.72 55.28 55.47 55.18 55.38 56.02 56.24 54.94 53.77 54.42 54.68 55.24 53.16 53.78 54.81 54.71 52.79 51.32 52.26
52.27 50.32 51.63 45.95 46.09 47.90 47.33 45.21 55.32 55.90 55.38 55.48 56.18 59.17 61.13 61.39 61.09 60.80 59.87 58.95 57.81 57.12 56.57 56.11 56.20 55.16 55.26 54.43 54.64 54.40 55.85 55.75 56.17 55.89 56.50 56.64 56.17 54.97 54.00 54.72 54.24 53.91 52.53 52.92 52.28 52.01 53.28 51.89 50.79
MSLP
1006.68 1005.93 1005.87 1004.62 1004.64 1003.98 1006.05 1006.83 1005.06 1002.37 1001.87 1002.22 1002.25 1003.94 1006.20 1006.97 1007.51 1009.75 1010.24 1010.09 1011.16 1011.42 1012.01 1012.47 1012.96 1013.26 1013.54 1013.85 1013.94 1014.02 1014.12 1014.27 1014.40 1014.50 1014.57 1014.66 1014.69 1014.72 1014.72 1014.67 1014.66 1014.65 1014.63 1014.62 1014.60 1014.51 1014.49 1014.44 1014.34
1006.03 1005.24 1004.07 1003.69 1003.36 1003.72 1005.59 1006.12 1005.79 1002.45 1002.27 1002.29 1002.53 1003.73 1005.88 1007.76 1008.59 1009.84 1010.08 1010.33 1010.55 1011.56 1012.39 1012.91 1013.19 1013.61 1013.84 1014.07 1014.17 1014.21 1014.39 1014.53 1014.68 1014.74 1014.81 1014.85 1014.84 1014.87 1014.85 1014.80 1014.82 1014.81 1014.78 1014.78 1014.80 1014.78 1014.69 1014.62 1014.51
1006.39 1005.28 1004.14 1002.17 1002.29 1005.24 1006.60 1005.63 1005.50 1002.66 1002.42 1002.30 1003.32 1004.77 1006.47 1008.49 1009.06 1009.83 1009.92 1009.93 1010.33 1011.50 1012.45 1013.20 1013.53 1013.88 1014.16 1014.31 1014.40 1014.47 1014.59 1014.72 1014.84 1014.95 1014.97 1015.04 1015.04 1014.97 1015.01 1014.93 1014.89 1014.86 1014.79 1014.73 1014.70 1014.67 1014.62 1014.57 1014.52
1005.01 1003.25 1003.12 1001.88 1001.76 1005.53 1006.95 1004.06 1002.41 1003.69 1003.37 1002.98 1004.21 1005.89 1007.89 1008.74 1009.02 1009.14 1009.30 1009.75 1010.25 1011.22 1012.64 1013.37 1013.78 1014.05 1014.25 1014.50 1014.58 1014.78 1014.85 1015.04 1015.09 1015.18 1015.17 1015.15 1015.09 1015.11 1015.12 1015.05 1014.96 1014.90 1014.80 1014.75 1014.66 1014.59 1014.48 1014.39 1014.33
1004.09 1003.28 1002.14 1001.48 1003.27 1004.68 1005.92 1001.37 1004.26 1005.38 1004.18 1004.23 1005.71 1007.12 1007.78 1008.52 1008.71 1008.85 1008.93 1009.43 1010.06 1011.48 1012.56 1013.47 1013.87 1014.16 1014.30 1014.41 1014.63 1014.86 1014.97 1015.09 1015.12 1015.17 1015.15 1015.12 1015.03 1015.03 1014.99 1014.97 1014.97 1014.87 1014.85 1014.82 1014.67 1014.52 1014.45 1014.38 1014.29
1003.52 1002.33 1001.95 1002.10 1005.59 1006.36 1005.09 1004.36 1004.65 1004.92 1004.01 1005.40 1006.55 1006.82 1007.92 1008.20 1008.45 1008.40 1008.75 1009.53 1010.19 1011.04 1012.13 1013.01 1013.78 1014.16 1014.32 1014.53 1014.75 1014.97 1015.17 1015.23 1015.31 1015.34 1015.35 1015.21 1015.12 1014.95 1014.86 1014.86 1014.90 1014.88 1014.83 1014.65 1014.57 1014.40 1014.25 1014.16 1014.13
1003.26 1002.19 1001.22 1001.11 1003.63 1005.66 1006.67 1005.87 1005.21 1005.52 1005.02 1004.34 1005.55 1006.48 1007.80 1007.92 1008.47 1008.98 1009.35 1009.77 1010.17 1010.37 1011.66 1012.64 1013.40 1014.20 1014.71 1014.57 1014.76 1015.00 1015.15 1015.23 1015.27 1015.35 1015.22 1014.99 1014.97 1014.87 1014.77 1014.69 1014.79 1014.72 1014.59 1014.46 1014.31 1014.14 1013.94 1013.87 1013.80
1002.83 1002.11 1001.31 1000.48 1001.54 1004.36 1006.01 1005.39 1006.19 1007.00 1004.87 1004.32 1004.42 1006.21 1007.66 1008.44 1008.54 1008.60 1008.94 1009.35 1009.98 1011.05 1011.78 1011.92 1013.25 1014.11 1014.64 1014.90 1014.50 1014.80 1014.92 1015.06 1015.14 1015.25 1015.05 1014.67 1014.64 1014.48 1014.43 1014.65 1014.53 1014.43 1014.25 1014.08 1013.85 1013.74 1013.51 1013.34 1013.30
1002.57 1001.94 1001.07 1000.11 999.67 1001.71 1003.07 1004.32 1003.77 1003.83 1004.35 1005.47 1005.31 1006.21 1007.92 1008.11 1008.32 1008.62 1008.88 1009.94 1011.24 1011.93 1012.54 1012.78 1013.37 1014.32 1014.60 1014.04 1014.36 1014.74 1014.86 1015.09 1015.21 1015.16 1015.12 1014.62 1014.29 1014.13 1014.00 1014.29 1014.14 1014.06 1013.81 1013.77 1013.67 1013.52 1013.31 1013.12 1013.04
1002.28 1001.68 1000.71 999.96 999.15 999.36 1000.74 1001.91 1002.85 1004.18 1005.13 1006.65 1007.07 1007.52 1007.96 1008.03 1008.52 1009.10 1010.01 1011.76 1012.89 1013.19 1013.63 1013.89 1014.00 1013.70 1013.67 1013.74 1014.42 1014.95 1015.00 1015.17 1015.16 1015.40 1015.56 1015.00 1014.83 1014.91 1014.55 1014.25 1014.14 1014.13 1013.91 1013.63 1013.50 1013.35 1012.95 1013.19 1012.64
1001.77 1001.28 1000.47 999.55 999.00 999.12 999.73 1002.33 1004.41 1004.67 1006.00 1006.76 1007.53 1007.96 1007.98 1008.85 1010.03 1010.72 1011.72 1013.08 1013.96 1014.39 1014.63 1014.85 1014.99 1014.77 1014.41 1014.38 1014.40 1014.67 1014.94 1014.98 1015.43 1015.74 1016.03 1015.77 1015.36 1015.37 1015.07 1014.60 1014.45 1014.15 1013.74 1013.52 1013.23 1012.84 1012.88 1012.59 1012.27
1001.10 1000.81 1000.32 999.48 999.15 999.38 1000.01 1003.26 1008.47 1009.42 1007.69 1006.89 1007.65 1008.30 1009.25 1009.92 1010.95 1011.85 1012.59 1013.61 1014.28 1014.82 1015.53 1015.77 1015.91 1015.79 1015.45 1015.05 1015.00 1015.12 1015.48 1015.73 1015.79 1016.13 1016.60 1016.52 1016.05 1015.99 1015.80 1015.17 1014.78 1014.44 1014.08 1013.94 1013.69 1013.39 1013.16 1012.65 1012.23
1000.61 1000.37 999.90 999.64 999.80 999.86 1000.38 1002.00 1004.70 1006.63 1007.86 1008.01 1008.05 1008.78 1009.38 1010.12 1010.98 1011.98 1013.03 1013.58 1014.29 1015.28 1016.06 1016.17 1016.33 1016.33 1016.09 1015.95 1015.94 1016.10 1016.30 1016.35 1016.27 1016.42 1017.00 1017.04 1016.84 1016.76 1016.43 1015.87 1015.19 1014.78 1014.64 1014.68 1014.50 1014.20 1013.67 1013.26 1012.51
1000.08 1000.33 999.88 999.93 1000.14 1000.37 1000.71 1002.63 1004.06 1007.00 1008.05 1008.05 1008.13 1008.89 1009.70 1010.50 1011.28 1012.05 1012.97 1014.15 1015.22 1015.84 1016.48 1016.58 1016.85 1016.89 1016.77 1016.93 1016.97 1017.06 1017.22 1017.04 1016.96 1016.89 1017.12 1017.45 1017.44 1017.36 1017.00 1016.43 1015.64 1015.26 1015.44 1015.45 1015.00 1014.44 1014.17 1013.69 1013.02
1000.21 1000.14 1000.01 1000.19 1000.33 1000.74 1001.28 1002.85 1003.90 1006.53 1007.67 1008.21 1008.65 1009.46 1010.42 1011.06 1011.72 1012.73 1013.70 1014.71 1015.55 1016.33 1016.47 1016.50 1016.93 1017.13 1017.20 1017.17 1017.18 1017.18 1017.34 1017.03 1017.07 1017.08 1017.31 1017.64 1017.72 1017.58 1017.38 1016.59 1016.03 1015.95 1016.06 1015.63 1014.87 1014.51 1014.22 1013.93 1013.40
1000.29 1000.40 999.89 999.84 1000.24 1000.79 1001.43 1002.71 1004.48 1006.16 1007.40 1008.41 1009.10 1009.99 1010.81 1011.61 1012.67 1013.70 1014.51 1015.12 1015.76 1016.39 1016.98 1017.19 1017.24 1017.44 1017.34 1017.26 1017.11 1017.12 1017.33 1017.22 1017.26 1017.28 1017.46 1017.94 1017.90 1017.70 1017.64 1017.08 1016.50 1016.41 1016.23 1015.52 1015.10 1015.03 1014.81 1014.46 1013.87
1000.39 999.68 999.46 998.93 999.81 1000.44 1001.39 1003.02 1005.02 1005.95 1006.90 1008.02 1008.99 1009.87 1010.79 1012.17 1013.31 1014.21 1015.03 1015.76 1016.36 1016.88 1017.34 1017.81 1017.94 1017.92 1017.70 1017.30 1017.06 1016.90 1017.01 1016.97 1017.14 1017.36 1017.80 1018.18 1018.09 1017.92 1017.86 1017.30 1016.77 1016.64 1016.20 1015.63 1015.52 1015.57 1015.40 1014.84 1014.09
999.48 999.37 998.67 998.42 999.60 1000.19 1001.18 1002.66 1004.96 1006.04 1006.43 1007.38 1008.43 1009.59 1010.85 1012.27 1013.53 1014.48 1015.41 1016.28 1016.89 1017.38 1017.83 1018.17 1018.44 1018.39 1018.03 1017.79 1017.57 1017.52 1017.39 1017.32 1017.30 1017.55 1017.99 1018.22 1018.30 1018.07 1017.88 1017.40 1017.14 1016.70 1016.48 1016.05 1016.00 1015.89 1015.51 1014.81 1014.01
998.68 998.19 997.98 997.62 998.97 1000.69 1000.83 1002.41 1004.43 1005.92 1006.27 1006.72 1007.81 1009.00 1010.49 1012.01 1013.69 1014.70 1015.69 1016.53 1017.15 1017.70 1018.09 1018.37 1018.73 1018.87 1018.61 1018.50 1018.35 1018.26 1017.98 1017.66 1017.61 1017.64 1017.88 1018.12 1018.17 1018.19 1018.15 1018.01 1017.78 1017.39 1017.09 1016.77 1016.53 1016.31 1015.84 1014.95 1014.48
998.72 998.17 997.55 997.92 999.16 1000.28 1000.59 1002.37 1004.92 1006.14 1006.42 1006.30 1006.98 1008.16 1009.86 1011.96 1013.66 1014.73 1015.70 1016.55 1017.24 1017.80 1018.33 1018.59 1018.92 1019.25 1019.25 1019.08 1018.87 1018.76 1018.28 1017.81 1017.69 1017.94 1018.11 1018.35 1018.64 1018.74 1018.75 1018.80 1018.45 1018.02 1017.63 1017.20 1016.92 1016.83 1016.37 1015.81 1015.09
998.65 998.43 997.82 998.06 999.27 1000.16 1001.03 1002.46 1004.78 1007.08 1006.90 1006.56 1006.60 1007.71 1009.21 1011.42 1013.33 1014.60 1015.55 1016.53 1017.32 1017.89 1018.37 1018.79 1019.12 1019.38 1019.57 1019.42 1019.19 1018.99 1018.44 1018.16 1018.34 1018.44 1018.86 1019.44 1019.26 1019.23 1019.15 1019.01 1018.67 1018.17 1017.83 1017.69 1017.39 1017.21 1016.91 1016.43 1015.95
998.42 998.61 998.32 998.27 999.29 1000.20 1001.14 1002.07 1003.97 1004.84 1006.08 1006.66 1006.80 1007.42 1009.12 1010.92 1012.69 1014.12 1015.24 1016.31 1017.05 1017.86 1018.40 1018.86 1019.26 1019.48 1019.56 1019.69 1019.61 1019.56 1019.46 1019.42 1019.50 1019.49 1019.73 1019.74 1019.69 1019.59 1019.39 1019.20 1018.82 1018.51 1018.15 1018.01 1017.63 1017.60 1017.29 1017.09 1016.78
998.56 998.30 998.54 998.87 999.80 1000.46 1001.63 1002.48 1002.18 1003.49 1004.94 1007.01 1007.59 1007.41 1008.76 1010.41 1011.99 1013.49 1014.73 1015.90 1016.77 1017.59 1018.26 1018.77 1019.20 1019.48 1019.66 1019.71 1020.03 1020.17 1020.41 1020.27 1020.32 1020.47 1020.32 1020.17 1019.95 1019.71 1019.55 1019.38 1019.15 1018.77 1018.41 1018.31 1017.99 1017.90 1017.71 1017.59 1017.42
998.51 998.28 998.47 999.40 999.80 1000.26 1000.52 1001.86 1002.98 1004.97 1006.88 1008.07 1008.09 1006.89 1007.72 1009.39 1011.07 1012.62 1014.07 1015.37 1016.44 1017.31 1017.92 1018.47 1018.96 1019.39 1019.62 1019.79 1020.29 1020.61 1020.83 1020.89 1021.00 1020.92 1020.84 1020.68 1020.49 1020.16 1019.92 1019.68 1019.18 1018.85 1018.56 1018.46 1018.24 1018.14 1017.93 1017.87 1017.67
998.19 998.70 999.09 999.65 999.74 999.67 1000.21 1001.50 1002.28 1004.87 1006.13 1006.19 1006.06 1005.46 1006.47 1008.85 1010.36 1011.58 1013.36 1014.90 1015.96 1016.67 1017.36 1018.15 1018.73 1019.29 1019.61 1019.91 1020.53 1020.83 1020.88 1021.12 1021.15 1021.09 1020.88 1020.74 1020.53 1020.31 1020.16 1019.74 1019.34 1019.03 1018.71 1018.39 1018.37 1018.33 1018.14 1018.05 1018.09
997.82 998.68 998.65 998.97 999.82 1001.17 1001.87 1001.25 1003.33 1003.90 1004.54 1004.93 1005.16 1004.61 1006.65 1007.49 1010.30 1010.91 1012.71 1014.30 1015.33 1016.37 1017.42 1018.07 1018.74 1019.24 1019.59 1020.12 1020.68 1021.02 1021.16 1021.24 1021.18 1020.99 1020.84 1020.63 1020.46 1020.26 1019.94 1019.52 1019.16 1019.01 1019.05 1018.85 1018.66 1018.72 1018.59 1018.38 1018.26
998.04 998.57 998.75 999.20 999.90 1000.75 1001.92 1002.37 1001.94 1002.64 1003.05 1003.35 1003.29 1005.05 1007.20 1008.87 1009.48 1010.47 1012.35 1013.72 1014.77 1016.26 1017.33 1018.06 1018.66 1019.16 1019.53 1020.34 1020.78 1021.04 1021.20 1021.21 1021.04 1020.80 1020.61 1020.42 1020.23 1019.87 1019.65 1019.50 1019.48 1019.29 1019.23 1019.09 1018.78 1018.94 1018.89 1018.72 1018.48
997.50 998.25 998.81 999.38 1000.25 1000.54 1000.58 1001.09 1001.92 1002.10 1002.44 1003.14 1003.65 1004.58 1006.13 1007.60 1008.93 1010.49 1012.01 1013.40 1014.71 1016.13 1017.33 1018.24 1018.71 1019.08 1019.52 1020.21 1020.59 1020.84 1020.93 1020.90 1020.74 1020.58 1020.55 1020.54 1020.45 1020.22 1019.96 1019.83 1019.57 1019.31 1019.31 1019.21 1019.12 1018.96 1018.81 1018.74 1018.63
997.87 998.24 998.90 999.39 1000.81 1001.15 1001.64 1002.33 1001.82 1001.39 1001.55 1002.24 1002.99 1003.88 1005.21 1006.79 1008.36 1010.11 1011.77 1013.28 1014.71 1016.03 1017.33 1018.15 1018.56 1018.97 1019.41 1020.16 1020.65 1020.72 1020.61 1020.57 1020.67 1020.58 1020.58 1020.44 1020.32 1020.32 1020.23 1020.07 1019.81 1019.53 1019.58 1019.53 1019.35 1019.07 1018.96 1018.91 1018.78
997.94 998.36 999.06 999.74 1000.89 1001.44 1002.32 1003.06 1002.38 1001.60 1001.69 1002.19 1002.66 1003.57 1004.87 1006.30 1007.73 1009.42 1011.33 1013.08 1014.58 1015.68 1016.78 1017.73 1018.27 1018.86 1019.42 1020.10 1020.37 1020.54 1020.33 1020.50 1020.49 1020.50 1020.42 1020.21 1020.24 1020.25 1020.30 1020.14 1019.95 1019.84 1020.02 1019.99 1019.84 1019.58 1019.30 1019.10 1018.91
Wind_Speed
11 12 10 10 7 2 6 12 18 11 13 12 17 22 26 21 13 9 5 7 15 13 13 14 12 12 11 11 11 11 10 9 8 7 6 6 5 5 6 6 6 7 6 6 5 5 4 4 4
11 16 10 7 10 5 3 17 36 13 13 17 13 21 20 21 19 11 9 9 15 16 12 12 13 11 10 10 10 10 10 9 8 7 6 6 5 5 6 7 7 8 7 7 6 6 6 6 6
12 13 9 7 14 10 7 12 33 14 10 16 12 18 10 11 17 7 9 11 15 16 14 12 12 11 10 9 10 9 9 8 7 7 7 7 7 7 7 8 8 8 8 7 6 6 6 7 7
8 8 9 12 9 13 7 19 13 27 10 18 18 15 11 6 7 8 13 11 16 17 15 12 11 10 10 9 10 10 9 8 8 8 8 7 8 8 7 7 7 7 7 8 8 8 7 7 8
12 9 13 21 17 14 5 5 28 19 14 17 17 15 15 15 11 11 11 15 13 18 15 12 11 10 9 10 10 10 9 10 9 9 7 5 4 4 4 4 5 6 8 9 10 10 10 9 10
10 12 17 6 10 9 21 21 27 18 24 22 20 19 16 12 11 10 14 15 11 18 15 12 12 11 10 12 11 10 9 8 6 5 4 4 5 5 5 5 4 5 7 8 10 10 11 11 10
14 14 19 23 11 10 15 23 7 23 8 18 20 21 12 16 12 11 11 13 13 12 17 14 12 12 11 11 11 9 7 6 5 2 1 5 7 9 8 5 1 4 7 8 9 10 10 11 12
14 14 23 21 16 11 16 14 4 27 12 13 12 11 15 14 13 12 13 13 14 19 16 10 13 13 8 8 12 10 9 7 5 2 6 10 8 12 10 4 5 5 8 9 10 10 11 11 11
19 13 14 21 19 15 17 16 15 18 19 20 20 21 19 14 13 11 13 17 15 13 15 14 12 8 6 8 9 8 8 6 4 5 15 14 4 7 8 4 2 5 9 10 11 12 13 13 11
17 13 20 21 21 10 22 17 18 19 19 18 20 20 16 14 11 14 14 14 11 11 13 12 13 12 7 4 6 5 3 5 5 9 10 9 8 10 12 11 5 7 12 11 11 12 15 12 7
19 16 21 19 15 11 7 21 13 9 15 18 19 18 14 16 14 13 15 14 10 8 8 11 12 11 11 8 6 3 4 4 6 9 9 9 7 6 6 6 4 3 4 4 4 6 5 6 4
18 18 19 22 12 4 5 22 14 18 15 19 19 17 15 15 13 12 10 13 8 10 12 10 10 8 8 7 7 8 6 5 5 7 10 7 6 8 8 6 7 7 6 8 8 8 9 8 8
14 17 16 14 11 8 7 15 19 21 17 18 19 17 15 14 14 14 11 9 10 13 10 9 8 8 9 9 7 7 8 7 6 7 8 7 8 7 7 8 6 5 7 8 8 9 8 10 11
11 11 16 9 9 9 11 21 11 13 13 14 17 15 14 14 13 12 12 13 12 11 6 8 10 10 10 8 8 6 4 4 5 5 6 9 7 6 7 8 6 5 7 7 7 7 6 7 9
13 11 10 11 13 11 8 7 9 17 14 14 15 14 13 10 12 12 11 13 10 8 7 7 10 8 7 6 6 4 5 4 4 3 7 9 7 6 8 8 6 7 7 10 5 5 6 7 8
11 11 13 15 13 16 14 15 18 20 17 15 15 14 13 13 13 12 10 10 11 11 10 10 10 9 6 5 3 2 2 2 4 4 5 10 9 8 8 8 6 7 7 7 5 6 8 8 8
13 14 20 17 18 14 20 6 15 18 18 16 15 14 14 13 12 11 12 12 12 10 10 10 9 8 7 6 5 3 3 2 3 4 7 7 9 9 7 7 6 6 6 5 6 6 7 8 8
16 16 17 15 17 17 17 13 18 16 18 17 16 15 14 13 12 12 13 12 11 10 10 10 8 9 7 6 6 6 5 5 4 4 5 5 5 8 6 7 7 7 6 5 6 7 7 8 5
20 15 15 16 17 15 20 19 21 19 18 19 17 16 15 14 13 12 12 12 12 10 9 9 9 8 7 6 6 6 6 3 3 3 5 5 4 9 11 10 11 9 9 7 7 5 9 8 8
21 16 15 14 23 14 13 18 17 16 17 18 18 18 17 17 14 13 13 12 11 10 9 9 8 8 7 5 5 5 5 3 3 5 6 8 11 9 9 8 8 8 6 5 6 7 6 7 5
17 15 15 13 12 8 12 15 15 17 17 18 17 17 18 18 15 13 12 11 11 10 9 8 7 7 6 7 5 6 5 5 6 6 8 9 10 8 7 7 7 7 6 6 6 7 8 6 6
16 15 18 8 6 10 11 15 24 27 22 17 16 16 14 18 16 14 13 12 11 10 9 8 7 6 7 7 7 8 7 6 7 8 8 6 8 8 7 8 7 7 6 6 5 7 6 8 8
15 17 17 8 13 9 9 9 18 19 15 14 12 15 15 15 16 15 14 12 12 11 9 7 7 6 6 6 8 7 7 6 7 6 7 9 7 5 7 8 9 6 5 5 6 6 7 6 6
13 16 10 10 10 13 21 17 6 6 8 7 14 19 19 18 17 16 14 14 11 10 10 7 7 6 5 7 10 7 6 6 6 6 6 5 5 4 7 8 6 5 6 5 4 5 4 3 4
15 10 8 11 13 14 13 13 6 17 27 27 29 20 20 18 18 17 18 14 12 12 10 8 7 6 6 8 10 7 6 7 6 6 4 5 4 4 5 4 4 3 4 5 6 6 6 7 5
12 13 11 12 7 6 11 9 10 19 19 24 26 20 16 19 17 18 17 14 13 11 9 7 7 6 7 10 8 6 8 4 3 4 2 2 2 2 3 4 5 6 7 7 5 4 5 5 4
13 16 18 14 12 11 6 16 16 13 12 7 10 19 21 17 17 16 18 14 13 12 8 7 7 7 7 8 8 5 5 4 3 3 3 0 2 1 2 3 6 5 5 6 5 4 4 5 5
15 10 13 8 12 14 9 5 5 4 13 10 8 21 17 16 16 15 15 12 13 12 9 8 6 7 7 8 6 5 5 4 3 0 5 5 5 6 6 7 6 6 6 4 5 3 2 3 3
14 8 9 6 2 8 6 1 6 6 11 14 15 14 20 17 17 16 15 13 14 13 11 8 7 7 8 8 6 4 1 4 4 4 4 3 4 5 5 5 5 5 5 5 6 6 6 6 5
17 17 14 9 9 5 3 4 11 10 3 3 5 13 18 18 16 18 16 15 13 12 12 7 6 7 8 7 6 4 3 4 4 3 2 3 3 5 5 5 5 7 8 8 8 8 7 6 6
Wind_Direction
269 253 234 257 247 27 44 267 298 94 85 60 79 82 69 51 38 98 176 104 83 92 106 88 79 72 70 70 73 74 75 75 76 75 71 63 55 44 30 25 17 12 13 18 21 23 16 7 356
302 305 278 265 250 225 77 57 292 83 112 106 63 101 86 69 90 101 113 106 108 93 85 89 89 81 79 77 75 79 76 72 68 67 64 60 51 35 27 21 12 4 4 5 3 1 357 348 339
273 265 280 234 234 78 313 183 226 90 64 103 95 52 61 79 59 118 130 129 108 104 101 95 94 89 84 78 75 71 66 66 61 50 43 30 20 17 7 6 3 351 346 341 336 334 331 327 323
278 290 234 257 263 156 197 230 121 46 36 105 119 76 87 78 87 136 112 134 116 101 99 99 97 97 93 88 79 68 63 54 48 39 30 19 14 6 357 349 342 331 324 320 316 312 304 299 300
255 262 270 262 40 7 326 130 84 49 64 83 87 97 102 104 122 123 129 91 76 108 114 109 108 108 103 97 92 84 74 65 58 49 38 21 360 328 317 310 308 313 315 313 308 305 303 298 292
278 266 267 312 66 48 295 0 116 153 109 109 106 103 100 121 132 121 82 98 91 113 118 123 131 125 107 99 88 79 71 71 65 56 21 339 302 281 272 278 298 315 306 297 295 294 291 286 282
258 279 283 291 151 152 265 347 37 68 335 101 122 105 130 119 103 104 112 120 133 141 126 139 136 123 110 116 116 114 118 117 119 123 286 270 276 273 260 245 289 287 296 295 291 290 288 280 273
262 276 287 287 197 179 179 169 310 151 92 72 145 130 115 116 146 137 128 126 85 61 66 75 123 133 118 173 139 150 153 159 164 144 274 271 247 257 255 196 206 269 271 269 271 273 268 263 263
264 271 270 279 293 143 158 159 196 100 87 67 62 108 125 144 144 133 112 64 58 48 32 59 37 143 166 149 146 163 164 140 74 39 356 334 14 346 359 156 217 266 265 270 272 275 272 267 266
246 255 262 275 288 153 176 185 117 106 105 99 96 112 134 152 101 93 85 72 55 47 47 39 25 8 20 98 145 110 132 99 70 49 2 349 27 8 354 336 255 271 275 270 261 266 269 281 264
236 243 258 257 292 320 81 63 39 108 119 125 123 126 123 88 80 78 71 85 79 77 71 46 29 14 2 28 47 71 50 26 54 61 23 1 342 16 351 339 8 301 316 302 276 299 226 316 321
228 242 252 271 321 276 305 108 115 239 56 119 125 106 109 119 116 109 102 126 123 93 68 59 45 29 17 7 36 21 45 27 28 59 34 8 350 13 348 351 333 343 357 356 354 343 346 329 314
237 244 246 266 293 248 264 96 100 104 121 130 127 126 131 124 122 117 121 106 95 70 61 61 49 26 33 34 27 36 14 24 17 50 44 17 350 13 340 331 317 337 9 353 348 325 340 328 315
225 247 259 234 236 235 212 119 108 119 131 128 127 123 123 132 117 118 103 84 78 73 88 69 61 42 40 45 38 40 30 13 25 20 58 28 360 1 344 317 339 351 15 333 308 315 328 314 312
234 218 234 230 204 216 172 140 138 138 143 137 130 128 123 122 96 89 95 99 98 85 50 89 102 71 61 43 26 51 26 14 29 21 68 40 355 1 345 328 328 23 349 303 305 331 332 327 324
237 240 234 208 213 222 185 188 137 150 157 156 152 143 146 124 113 107 101 98 91 89 76 52 47 44 56 10 86 59 63 17 38 19 38 29 344 1 353 332 336 12 320 304 343 357 341 323 319
221 235 225 213 197 196 203 143 147 167 171 167 161 158 138 122 119 113 110 103 92 86 88 75 44 44 19 14 7 8 145 43 51 40 49 20 354 351 355 322 349 341 309 322 11 351 319 314 303
217 221 251 192 185 211 186 221 161 187 182 176 169 163 150 146 137 126 115 109 105 98 88 74 62 21 23 18 24 7 4 9 37 49 46 23 6 346 344 324 345 320 333 334 9 341 320 301 306
257 240 223 231 152 209 205 164 172 183 197 177 180 173 162 151 135 136 125 122 114 103 90 82 67 38 27 19 15 359 344 3 38 29 40 36 14 6 4 8 3 356 358 13 14 350 338 317 12
260 273 267 113 168 202 226 162 162 186 204 199 185 173 164 137 149 147 141 133 120 112 101 83 76 56 38 1 20 340 316 329 43 32 52 28 43 34 21 7 347 345 342 346 5 16 339 351 3
239 253 271 157 171 229 262 217 113 241 219 209 191 177 165 152 160 159 149 137 137 123 110 93 74 76 48 357 23 345 344 2 22 5 32 41 37 29 17 349 330 322 349 2 5 17 353 344 352
253 230 259 233 175 228 240 247 178 183 196 207 202 182 161 156 161 164 158 153 139 133 117 101 85 48 54 39 33 15 8 15 17 15 20 28 32 17 1 343 349 2 5 2 355 27 2 12 1
244 233 236 160 216 242 212 235 260 203 183 192 211 204 156 164 162 167 160 160 150 141 123 113 97 77 59 55 53 27 29 23 24 17 9 17 1 17 11 360 348 3 13 8 12 21 22 23 8
218 265 189 255 245 235 241 213 288 58 37 82 260 207 176 167 158 163 166 150 151 139 142 123 109 85 65 56 72 58 50 36 43 38 22 19 4 346 8 353 344 359 8 357 355 5 48 13 25
218 215 206 219 233 239 290 190 204 157 185 178 215 195 178 158 159 164 153 157 163 168 134 127 96 84 74 75 74 46 69 68 51 34 24 27 8 11 340 317 351 322 3 358 48 7 23 14 52
199 216 239 224 290 323 308 294 159 176 189 203 212 185 154 152 169 167 154 164 175 135 137 119 112 94 88 84 76 63 64 65 45 56 17 42 27 10 330 307 300 54 39 359 60 18 18 11 50
199 230 242 269 286 210 178 276 124 122 106 106 116 126 154 166 165 163 151 171 159 140 143 130 121 108 106 108 102 88 88 69 42 357 287 207 349 220 352 355 21 58 58 9 17 71 30 17 360
233 210 232 236 265 281 281 99 86 172 141 123 128 155 145 156 158 164 153 162 129 142 128 113 114 108 108 97 94 110 135 148 192 27 49 61 20 5 7 5 360 24 58 29 351 351 14 23 2
229 226 257 236 307 282 297 339 272 223 151 169 171 168 147 158 163 161 153 147 135 140 147 159 145 144 119 111 114 109 127 75 49 73 62 54 70 28 12 8 350 360 65 354 345 343 27 10 359
243 228 228 258 234 251 29 113 3 12 93 61 55 152 152 156 167 154 152 150 153 169 150 143 124 135 111 119 136 148 125 126 117 88 73 61 55 71 17 4 348 38 33 19 6 3 352 14 355